Tracking 21092 objects as of 14-Aug-2020
HD Live streaming from Space Station
objects crossing your sky now
Track the most recent launched group of Starlink satellites

METEOR 1-25

Track METEOR 1-25 now!
10-day predictions
METEOR 1-25 is classified as:


NORAD ID: 8845
Int'l Code: 1976-043A
Perigee: 833.2 km
Apogee: 889.6 km
Inclination: 81.3 °
Period: 102.0 minutes
Semi major axis: 7232 km
RCS: 4.2593 m2 (large)
Launch date: May 15, 1976
Source: Commonwealth of Independent States (former USSR) (CIS)
Launch site: PLESETSK MISSILE AND SPACE COMPLEX (PKMTR)
aabbcc
Your satellite tracking list
Your tracking list is empty




NASA's NSSDC Master Catalog

Two Line Element Set (TLE):
1  8845U 76043A   20226.77956777 +.00000117 +00000-0 +57146-4 0  9998
2  8845 081.2592 233.4999 0038970 227.7713 132.0150 14.11487563423932
Source of the keplerian elements: AFSPC